Regional Weather Roundup
Issued by NWS

Home | Current Version | Previous Version | Graphics & Text | Print | Product List | Glossary Off
Versions: 1 2 3 4 5 6 7 8 9 10 11 12 13 14 15 16 17 18 19 20 21 22 23 24 25 26 27 28 29 30 31 32 33 34 35 36 37 38 39 40 41 42 43 44 45 46 47 48 49 50

000
ASUS43 KDMX 231801
RWRIA

WEATHER ROUNDUP FOR IOWA
NATIONAL WEATHER SERVICE DES MOINES IA
1200 PM CST FRI FEB 23 2018

NOTE: "FAIR" INDICATES FEW OR NO CLOUDS BELOW 12,000 FEET WITH NO
SIGNIFICANT WEATHER AND/OR OBSTRUCTIONS TO VISIBILITY.

* - THESE STATIONS ARE NOT NWS STATIONS...THUS NOT UNDER NWS
QUALITY CONTROL.  THEY ALSO DO NOT REPORT WEATHER SUCH
AS PRECIPITATION OR FOG.

IAZ001>003-012>014-020>022-031>034-043>046-231900-
   NORTHWEST IOWA

CITY           SKY/WX    TMP DP  RH WIND       PRES   REMARKS
CARROLL *      PTSUNNY   25  21  86 W10       30.31R WCI  15
CHEROKEE *     CLOUDY    22  19  91 W9        30.30R WCI  11
DENISON *      PTSUNNY   25  21  86 W6        30.33R WCI  18
LE MARS *      CLOUDY    19  18  93 NW10G17   30.29S WCI   8
ORANGE CITY *  CLOUDY    19  19 100 N9        30.27R WCI   9
SHELDON *      CLOUDY    19  18  93 W9        30.25S WCI   9
SIOUX CITY     CLOUDY    20  17  88 NW7       30.34R WCI  11
6HR MIN TEMP:  12; 6HR MAX TEMP:  21;

SPENCER        CLOUDY    23  18  81 NW15      30.26R WCI  10
6HR MIN TEMP:  20; 6HR MAX TEMP:  23;

STORM LAKE *   CLOUDY    21  19  93 W9        30.28R WCI  11
$$

IAZ055>058-069>071-079>083-090>094-231900-
   SOUTHWEST IOWA

CITY           SKY/WX    TMP DP  RH WIND       PRES   REMARKS
ATLANTIC *     MOSUNNY   30  27  86 W8        30.31S WCI  23
AUDUBON *      PTSUNNY   28  25  86 W7        30.31R WCI  21
CLARINDA *     PTSUNNY   32  28  86 NW9       30.33F WCI  24
COUNCIL BLFS * MOSUNNY   28  28 100 NW5       30.32S WCI  23
CRESTON *      PTSUNNY   30  27  86 W10       30.30S WCI  21
HARLAN  *      CLOUDY    27  25  93 NW8       30.35R WCI  18
LAMONI         MOSUNNY   34  28  79 NW8       30.28F WCI  27
6HR MIN TEMP:  31; 6HR MAX TEMP:  34;

RED OAK *      PTSUNNY   32  28  86 VRB6      30.32S WCI  26
SHENANDOAH *   SUNNY     32  28  86 N8        30.32F WCI  25
$$

IAZ047>049-059>061-072>074-084-231900-
   CENTRAL IOWA

CITY           SKY/WX    TMP DP  RH WIND       PRES   REMARKS
AMES           PTSUNNY   30  24  78 W13       30.29R WCI  20
6HR MIN TEMP:  28; 6HR MAX TEMP:  31;

ANKENY *       MOSUNNY   32  27  80 MISG      30.30R
BOONE *        CLOUDY    28  25  86 MISG      30.28R
CHARITON *     CLOUDY    34  28  80 NW8       30.28S WCI  27
DES MOINES     MOSUNNY   34  25  69 W13       30.29S WCI  25
6HR MIN TEMP:  29; 6HR MAX TEMP:  34;

GRINNELL*      CLOUDY    32  27  80 W13       30.27R WCI  23
KNOXVILLE *    MOSUNNY   36  27  69 W12       30.27R WCI  27
MARSHALLTOWN   PTSUNNY   32  26  78 W13       30.26R WCI  22
6HR MIN TEMP:  29; 6HR MAX TEMP:  33;

NEWTON *       MOSUNNY   32  27  80 W10       30.28S WCI  24
PELLA *        SUNNY     36  27  69 W10       30.29R WCI  28
PERRY *        PTSUNNY   31  28  90 W10       30.31R WCI  22
$$

IAZ004>006-015-016-023>025-035-036-231900-
   NORTH CENTRAL IOWA

CITY           SKY/WX    TMP DP  RH WIND       PRES   REMARKS
CLARION *      PTSUNNY   23  25 100 W10       30.27R WCI  12
ESTHERVILLE    SUNNY     23  18  81 NW15      30.23R WCI  10
6HR MIN TEMP:  16; 6HR MAX TEMP:  23;

FORT DODGE *   CLOUDY    25  20  81 W9        30.30R WCI  15
MASON CITY       N/A     25  21  85 NW13      30.23R WCI  14
6HR MIN TEMP:  23; 6HR MAX TEMP:  27;

FOREST CITY *  FAIR      27  21  80 W10       30.23R WCI  17
WEBSTER CITY * CLOUDY    23  19  86 W14       30.28R WCI  11
IOWA FALLS *   CLOUDY    27  24  89 W10       30.28R WCI  17
$$

IAZ007>011-017>019-026>030-037>042-050>054-066-231900-
   NORTHEAST IOWA

CITY           SKY/WX    TMP DP  RH WIND       PRES   REMARKS
CEDAR RAPIDS   PTSUNNY   36  28  73 W17       30.23S WCI  26
6HR MIN TEMP:  33; 6HR MAX TEMP:  37;

CHARLES CITY * FAIR      27  27 100 MISG      30.23R
CLINTON *      CLOUDY    39  34  82 W17       30.21F WCI  30
DECORAH *      PTSUNNY   30  27  86 W12G18    30.18R WCI  21
DUBUQUE        CLOUDY    34  27  75 W13       30.19S WCI  25
6HR MIN TEMP:  32; 6HR MAX TEMP:  35;

MONTICELLO *   PTSUNNY   34  28  80 W10G17    30.21S WCI  26
OELWEIN *      CLOUDY    30  30 100 W14       30.22S WCI  20
WATERLOO       CLOUDY    30  24  78 W10       30.24R WCI  21
6HR MIN TEMP:  29; 6HR MAX TEMP:  32;

$$

IAZ064-065-067-068-078-231900-
   EAST CENTRAL IOWA

CITY           SKY/WX    TMP DP  RH WIND       PRES   REMARKS
DAVENPORT      CLOUDY    39  32  76 W13       30.24S WCI  31
6HR MIN TEMP:  35; 6HR MAX TEMP:  39;

IOWA CITY      CLOUDY    38  29  70 W15       30.26R WCI  29
6HR MIN TEMP:  35; 6HR MAX TEMP:  39;

MT. PLEASANT * CLOUDY    37  32  81 W12G20    30.27S WCI  30
MUSCATINE *    CLOUDY    41  32  70 W12       30.26S
QUAD CITIES    PTSUNNY   39  33  79 W14       30.23F WCI  31
6HR MIN TEMP:  35; 6HR MAX TEMP:  40;

$$

IAZ062-063-075>077-085>089-095>099-231900-
   SOUTHEAST IOWA

CITY           SKY/WX    TMP DP  RH WIND       PRES   REMARKS
BURLINGTON     CLOUDY    36  32  85 W10       30.26S WCI  28
6HR MIN TEMP:  34; 6HR MAX TEMP:  36;

FAIRFIELD *    CLOUDY    36  30  80 NW10      30.27R WCI  28
FORT MADISON * CLOUDY    36  34  93 NW9       30.28S WCI  29
KEOKUK *       CLOUDY    37  34  87 W8        30.28R WCI  31
OSKALOOSA *    PTSUNNY   35  29  78 W10       30.27F WCI  28
OTTUMWA        CLOUDY    37  29  72 W9        30.27R WCI  30
6HR MIN TEMP:  34; 6HR MAX TEMP:  37;

WASHINGTON *   CLOUDY    37  34  87 W13       30.28R WCI  29
$$

ABBREVIATIONS USED IN REMARKS
   TC - TEMPERATURES IN CELSIUS
  WCI - WIND CHILL INDEX
   HX - HEAT INDEX
  VSB - VISIBILITY
$$





USA.gov is the U.S. government's official web portal to all federal, state and local government web resources and services.